OSCAR 7 (AO-7) 1 07530U 74089B 26237.51062100 -.00000023 00000+0 14777-3 0 9992 2 07530 101.9921 251.4820 0012242 0.8898 166.2006 12.53699270369201 PHASE 3B (AO-10) 1 14129U 83058B 26234.88657270 -.00000310 00000+0 00000+0 0 9994 2 14129 25.9661 208.6277 5988982 133.9728 294.5118 2.05871966296867 UOSAT 2 (UO-11) 1 14781U 84021B 26237.35138545 .00001171 00000+0 12429-3 0 9990 2 14781 97.8131 202.1863 0006623 326.2390 33.8406 14.90944286267439 LUSAT (LO-19) 1 20442U 90005G 26237.04320253 .00000074 00000+0 42953-4 0 9992 2 20442 98.8841 260.7408 0011651 9.8689 350.2721 14.34139632912269 EYESAT A (AO-27) 1 22825U 93061C 26237.15414466 .00000065 00000+0 41650-4 0 9999 2 22825 98.6827 304.5237 0007271 255.9532 104.0843 14.30957215716868 ITAMSAT (IO-26) 1 22826U 93061D 26237.46247517 .00000065 00000+0 41460-4 0 9994 2 22826 98.6775 304.7564 0007925 235.8836 124.1596 14.31385784717222 RADIO ROSTO (RS15) 1 23439U 94085A 26237.47082775 -.00000060 00000+0 -50799-3 0 9997 2 23439 64.8152 191.1620 0158488 351.3029 8.5156 11.27584115303710 JAS-2 (FO-29) 1 24278U 96046B 26237.36397844 .00000007 00000+0 46340-4 0 9999 2 24278 98.5187 76.7535 0348794 276.9492 79.2100 13.53277117482527 TECHSAT 1B (GO-32) 1 25397U 98043D 26237.39393177 .00000046 00000+0 40069-4 0 9994 2 25397 99.0129 231.9166 0001947 49.5442 310.5906 14.24439747461184 ISS (ZARYA) 1 25544U 98067A 26237.53157715 .00007217 00000+0 13603-3 0 9996 2 25544 51.6331 316.8722 0007739 83.0953 277.0916 15.49622505582505 PCSAT (NO-44) 1 26931U 01043C 26235.97866662 .00000080 00000+0 60923-4 0 9998 2 26931 67.0496 68.9288 0005649 270.3796 89.6659 14.31977234300157 SAUDISAT 1C (SO-50) 1 27607U 02058C 26237.33781020 .00000818 00000+0 11381-3 0 9994 2 27607 64.5511 275.0136 0073063 249.7916 109.5323 14.83176312274717 CUTE-1 (CO-55) 1 27844U 03031E 26237.51147310 .00000229 00000+0 11777-3 0 9992 2 27844 98.6766 245.2071 0009337 351.9381 8.1646 14.24371783201549 CUBESAT XI-IV (CO-57) 1 27848U 03031J 26237.46457003 .00000198 00000+0 10609-3 0 9991 2 27848 98.6795 244.8175 0009674 10.8530 349.2856 14.23651882201234 MOZHAETS 4 (RS22) 1 27939U 03042A 26237.54773677 .00000249 00000+0 46570-4 0 9995 2 27939 98.3487 63.8814 0012374 52.3200 32.4397 14.73571264225760 CUBESAT XI-V 1 28895U 05043F 26237.36419793 .00001079 00000+0 17699-3 0 9997 2 28895 98.3070 34.4804 0013693 351.6144 8.4832 14.72786905111939 CUTE-1.7+APD II (CO-65) 1 32785U 08021C 26237.50906499 .00004720 00000+0 29429-3 0 9999 2 32785 97.8338 220.4243 0009611 143.7253 216.4629 15.10007527995656 SEEDS II (CO-66) 1 32791U 08021J 26237.41702366 .00018518 00000+0 54848-3 0 9996 2 32791 97.7552 238.7512 0004709 80.3531 279.8243 15.34917306997905 YUBILEINY (RS30) 1 32953U 08025A 26237.55107544 -.00000051 00000+0 -43945-3 0 9993 2 32953 82.5066 312.3011 0020202 157.5623 202.6345 12.43181850828314 KKS-1 (KISEKI) 1 33499U 09002H 26237.47331723 .00001085 00000+0 13938-3 0 9999 2 33499 98.1157 161.0097 0009284 68.9804 291.2401 14.83272455946462 SWISSCUBE 1 35932U 09051B 26237.47268477 .00000819 00000+0 17093-3 0 9992 2 35932 98.3960 146.5478 0007066 8.6608 351.4713 14.62593917899288 BEESAT-1 1 35933U 09051C 26237.31327935 .00000670 00000+0 14392-3 0 9995 2 35933 98.3887 145.8750 0005881 25.4808 334.6681 14.61814298899288 ITUPSAT1 1 35935U 09051E 26237.22786161 .00000631 00000+0 14006-3 0 9996 2 35935 98.3967 144.9052 0008270 32.8637 327.3076 14.60527291898819 XIWANG-1 (HOPE-1) 1 36122U 09072B 26237.47903788 -.00000230 00000+0 -48537-3 0 9994 2 36122 100.4073 190.2189 0008199 76.3513 283.8513 13.16439542802124 O/OREOS (USA 219) 1 37224U 10062C 26237.50382582 .00001438 00000+0 14056-3 0 9994 2 37224 71.9690 283.2936 0016452 290.7602 69.1805 14.93977354126997 JUGNU 1 37839U 11058B 26237.38722058 .00000389 00000+0 63382-4 0 9995 2 37839 19.9598 248.0066 0018756 120.3453 270.3077 14.13792779768832 SRMSAT 1 37841U 11058D 26237.49729565 .00000377 00000+0 60568-4 0 9990 2 37841 19.9733 359.9436 0011603 246.8568 179.3586 14.11588422767629 STRAND-1 1 39090U 13009E 26237.05030199 .00000204 00000+0 82999-4 0 9997 2 39090 98.3960 55.6074 0009251 32.4047 327.7706 14.37197535706956 ZACUBE-1 (TSHEPISOSAT) 1 39417U 13066B 26236.85384148 .00005302 00000+0 40596-3 0 9996 2 39417 97.8038 199.5196 0041906 23.2843 337.0267 15.01612971691033 GOMX-1 1 39430U 13066Q 26237.50042140 .00001301 00000+0 20100-3 0 9991 2 39430 97.6452 73.5944 0127222 214.2485 145.0470 14.69631040680096 CUBEBUG-2 (LO-74) 1 39440U 13066AA 26237.31652301 .00002297 00000+0 21337-3 0 9995 2 39440 97.8944 186.6258 0057530 156.6743 203.7107 14.94159640687319 FUNCUBE-1 (AO-73) 1 39444U 13066AE 26237.37558668 .00007067 00000+0 42887-3 0 9999 2 39444 97.8340 210.3332 0034594 331.2085 28.7233 15.10349077690106 UWE-3 1 39446U 13066AG 26237.31936153 .00002976 00000+0 25460-3 0 9996 2 39446 97.8759 193.8996 0050349 88.6958 272.0031 14.97420104687922 UNISAT-6 1 40012U 14033C 26237.37807119 .00003090 00000+0 33234-3 0 9993 2 40012 97.7961 28.9224 0044330 198.5242 161.4364 14.88529191656459 DUCHIFAT-1 1 40021U 14033M 26237.14481635 .00366648 00000+0 14053-2 0 9997 2 40021 98.0331 306.9909 0005949 211.7167 148.3745 15.86494321666598 QB50P1 1 40025U 14033R 26235.48502800 .00006735 00000+0 32359-3 0 9992 2 40025 98.0979 251.4010 0008563 7.5646 352.5714 15.19176645663241 LILACSAT-2 1 40908U 15049K 26237.55804752 .00016906 00000+0 26614-3 0 9999 2 40908 97.4596 277.1225 0006434 17.6067 342.5408 15.53640325606511 FOX-1A (AO-85) 1 40967U 15058D 26237.49856735 .00002171 00000+0 19717-3 0 9990 2 40967 64.7741 63.5221 0136020 30.4700 330.4226 14.91324002123903 CAS-2T & KS-1Q 1 41847U 16066G 26237.21777178 .00000447 00000+0 72975-4 0 9991 2 41847 98.3779 312.1635 0340070 280.1339 76.1661 14.44814479514766 RADFXSAT (FOX-1B) 1 43017U 17073E 26237.18115931 .00009057 00000+0 38442-3 0 9996 2 43017 97.4605 102.9884 0149732 90.2020 271.6370 15.13607423475823 DIWATA-2B 1 43678U 18084H 26237.51925380 .00001095 00000+0 91708-4 0 9995 2 43678 98.1205 76.7787 0010483 301.2346 58.7848 15.00674645426619 ES'HAIL 2 1 43700U 18090A 26237.19395492 .00000141 00000+0 00000+0 0 9998 2 43700 0.0189 132.2779 0002417 48.4391 248.3476 1.00271606 28364 FOX-1CLIFF (AO-95) 1 43770U 18099N 26237.12870356 .00010853 00000+0 39892-3 0 9990 2 43770 97.4330 297.1627 0010110 103.4878 256.7489 15.28031746423745 ITASAT 1 43786U 18099AE 26237.10414704 .00005887 00000+0 27730-3 0 9995 2 43786 97.3981 287.2546 0014016 110.0255 250.2490 15.19807444423371 JY1SAT (JO-97) 1 43803U 18099AX 26236.62279797 .00015872 00000+0 45910-3 0 9997 2 43803 97.4076 299.7724 0006049 42.5314 317.6397 15.35682704424121 UWE-4 1 43880U 18111E 26237.30797105 .00037989 00000+0 66933-3 0 9992 2 43880 97.5819 169.0960 0009914 79.3523 280.8844 15.50284625421477 TIANYAN 01 1 44881U 19093C 26237.50908222 .00000909 00000+0 10833-3 0 9990 2 44881 97.7490 308.0355 0012472 213.6854 146.3570 14.86611604361713 RS-44 & BREEZE-KM R/B 1 44909U 19096E 26237.42856755 .00000023 00000+0 51663-4 0 9992 2 44909 82.5210 293.7023 0217089 342.7750 16.6063 12.79748881311201 SALSAT 1 46495U 20068K 26237.26336135 .00007111 00000+0 24232-3 0 9998 2 46495 97.8877 244.5903 0011122 65.4484 294.7913 15.30667520325922 XW-3 (CAS-9) 1 50466U 21131B 26237.54182538 .00000417 00000+0 14229-3 0 9997 2 50466 98.4978 329.5554 0002946 242.7248 117.3641 14.41411213245108 GREENCUBE (IO-117) 1 53109U 22080E 26237.13121200 -.00000003 00000+0 00000+0 0 9992 2 53109 70.1267 274.2694 0009210 274.4962 85.4645 6.42583689 96494 UMKA 1 (RS40S) 1 57172U 23091G 26237.49244663 .00005330 00000+0 23972-3 0 9991 2 57172 97.4997 295.9334 0011162 232.4075 127.6147 15.21492036174540 CUBESX-HSE 3 (RS42S) 1 57178U 23091N 26237.47375481 .00013158 00000+0 41777-3 0 9998 2 57178 97.5041 303.9929 0009818 196.9052 163.1864 15.32744333175039 MONITOR-3 (RS58S) 1 57180U 23091Q 26237.46219604 .00010058 00000+0 35872-3 0 9999 2 57180 97.5032 301.4554 0010531 206.8687 153.2009 15.29044030174873 MONITOR-4 (RS57S) 1 57182U 23091S 26237.50271626 .00009444 00000+0 33607-3 0 9999 2 57182 97.5026 301.4711 0010517 207.1663 152.9028 15.29137104174888 MONITOR-2 (RS39S) 1 57184U 23091U 26237.47207514 .00003950 00000+0 18940-3 0 9991 2 57184 97.5019 295.3102 0009803 224.9473 135.0968 15.19453473174478 SVYATOBOR 1 (RS60S) 1 57187U 23091X 26237.44880809 .00008402 00000+0 31346-3 0 9997 2 57187 97.5039 301.6778 0008620 197.9862 162.1073 15.27633127174888 VIZARD-METEO (RS38S) 1 57189U 23091Z 26237.41601595 .00017471 00000+0 46850-3 0 9991 2 57189 97.5044 308.3699 0007263 170.2279 189.9108 15.38016880175329 POLYTECH-UNIVERSE 3 (R*) 1 57191U 23091AB 26237.35789902 .00004271 00000+0 20301-3 0 9993 2 57191 97.4994 294.7013 0013708 245.4720 114.5086 15.19669299174459 UTMN 2 (RS27S) 1 57203U 23091AP 26237.45441473 .00012552 00000+0 38892-3 0 9991 2 57203 97.5038 305.6904 0007683 179.8193 180.3053 15.33554903175157 KUZGTU 1 (RS47S) 1 57217U 23091AV 26237.46403497 .00011821 00000+0 39351-3 0 9990 2 57217 97.5013 302.6980 0009937 201.7514 158.3307 15.31247285174978 SONATE-2 1 59112U 24043Q 26237.35558628 .00049764 00000+0 52680-3 0 9996 2 59112 97.5591 32.3074 0004781 305.3422 54.7389 15.63993551138683 MESAT1 1 60209U 24125G 26237.12359662 .00089161 00000+0 68244-3 0 9996 2 60209 97.2172 96.5607 0005622 324.7467 35.3424 15.71848930120367 GRBBETA 1 60237U 24128C 26237.36605204 .00003353 00000+0 23439-3 0 9998 2 60237 61.9920 333.4723 0030853 149.7657 210.5225 15.07068956116697 OOV-CUBE (TUBSAT-30) 1 60240U 24128F 26237.38330845 .00002149 00000+0 17231-3 0 9995 2 60240 61.9971 344.2419 0035179 149.6421 210.6717 15.03031266116511 COLIBRI-S (RS67S) 1 61746U 24199M 26237.50226045 .00022690 00000+0 39876-3 0 9997 2 61746 97.2870 112.0849 0009045 41.0393 319.1538 15.50465126148145 HORS 3 (RS81S) 1 61753U 24199U 26237.48270887 .00042175 00000+0 52410-3 0 9994 2 61753 97.2857 114.9060 0006647 45.8900 314.2903 15.59852058148342 HORS 4 (RS82S) 1 61754U 24199V 26237.50980449 .00065034 00000+0 61502-3 0 9991 2 61754 97.2788 116.6846 0005206 46.7801 313.3893 15.66775789148472 SIT-2086 1 61764U 24199AF 26237.48051630 .00041875 00000+0 55862-3 0 9999 2 61764 97.2813 115.1393 0006366 29.7094 330.4522 15.57969385145200 ALTAIR (RS65S) 1 61779U 24199AW 26237.48531895 .00010172 00000+0 27167-3 0 9994 2 61779 97.2928 106.3997 0013983 61.2134 299.0514 15.38194394147767 ASRTU-1 (AO-123) 1 61781U 24199AY 26237.47478641 .00007237 00000+0 20421-3 0 9999 2 61781 97.2897 105.5273 0015205 63.6451 296.6353 15.36576993144566 SAMSAT-IONOSPHERE (RS7*) 1 61784U 24199BB 26237.49420862 .00058784 00000+0 61750-3 0 9999 2 61784 97.2812 115.2887 0007845 42.5425 317.6441 15.64129026148370 RTU MIREA 1 (RS51S) 1 61785U 24199BC 26237.51516573 .00083587 00000+0 69823-3 0 9996 2 61785 97.2793 116.5965 0006814 44.0647 316.1157 15.69752563145310 LASARSAT 1 62391U 24247Q 26237.39011242 .00038717 00000+0 66341-3 0 9990 2 62391 44.9711 232.0951 0007710 55.5752 304.5867 15.50590032 94045 CROCUBE 1 62394U 24247T 26237.03134957 .00043022 00000+0 67126-3 0 9990 2 62394 44.9685 230.1372 0007915 62.8834 297.2865 15.53158446 94030 TEVEL2-4 1 63213U 25052D 26237.44313729 .00018627 00000+0 51839-3 0 9994 2 63213 97.3801 134.0273 0002073 157.2357 202.8979 15.36870517 80746 TEVEL2-5 1 63214U 25052E 26237.47225634 .00018627 00000+0 52190-3 0 9996 2 63214 97.3801 133.9830 0001910 158.4448 201.6876 15.36660131 80749 TEVEL2-6 1 63215U 25052F 26237.16056756 .00018645 00000+0 52314-3 0 9998 2 63215 97.3804 133.6553 0001759 157.9574 202.1746 15.36615911 80699 TEVEL2-1 1 63217U 25052H 26237.21540064 .00017945 00000+0 51363-3 0 9991 2 63217 97.3777 133.2480 0001330 181.0795 179.0446 15.36001106 80686 TEVEL2-3 1 63218U 25052J 26237.20717035 .00018194 00000+0 51952-3 0 9996 2 63218 97.3780 133.2718 0001181 166.8571 193.2704 15.36073075 80681 TEVEL2-2 1 63219U 25052K 26237.15005463 .00018119 00000+0 51841-3 0 9990 2 63219 97.3779 133.1859 0001283 183.1287 176.9949 15.36012063 80672 OTP-2 1 63235U 25052AB 26237.41273985 .00005845 00000+0 23846-3 0 9999 2 63235 97.3769 128.8149 0004249 285.0835 74.9932 15.24802858 80415 TEVEL2-9 1 63237U 25052AD 26237.22039802 .00016213 00000+0 49690-3 0 9994 2 63237 97.3841 132.4731 0003810 248.3841 111.6996 15.33857733 80600 TEVEL2-7 1 63238U 25052AE 26235.51388802 .00015154 00000+0 47057-3 0 9990 2 63238 97.3840 130.6525 0003640 257.9226 102.1608 15.33456949 80334 TEVEL2-8 1 63239U 25052AF 26237.21933986 .00015746 00000+0 48820-3 0 9995 2 63239 97.3842 132.3314 0003774 251.3551 108.7281 15.33498341 80598 INNOSAT 16 (RS92S7) 1 64878U 25155C 26237.45282419 .00005684 00000+0 22289-3 0 9994 2 64878 97.4631 204.4207 0008674 309.0715 50.9751 15.26123803 91237 GEOSCAN 6 (RS92S6) 1 64879U 25155D 26237.47238962 .00010126 00000+0 33666-3 0 9999 2 64879 97.4620 206.3806 0005525 300.4036 59.6658 15.31364439 91369 GEOSCAN 1 (RS92S1) 1 64880U 25155E 26237.51061120 .00010251 00000+0 33342-3 0 9996 2 64880 97.4615 206.6329 0005385 300.5441 59.5269 15.32067445 91380 239ALFEROV (RS61S) 1 64881U 25155F 26237.50188139 .00013591 00000+0 40621-3 0 9994 2 64881 97.4611 207.4402 0004784 299.9944 60.0824 15.34693852 91438 GEOSCAN 2 (RS92S2) 1 64890U 25155Q 26237.49265226 .00010428 00000+0 33657-3 0 9992 2 64890 97.4614 206.7937 0004556 281.7686 78.3044 15.32315978 91394 GEOSCAN 5 (RS92S5) 1 64891U 25155R 26237.47721510 .00014671 00000+0 43426-3 0 9993 2 64891 97.4604 207.5779 0003836 310.7983 49.2927 15.34985899 91440 GEOSCAN 4 (RS92S4) 1 64892U 25155S 26237.45367434 .00014858 00000+0 43715-3 0 9991 2 64892 97.4609 207.6251 0003663 311.6820 48.4110 15.35175029 91442 GEOSCAN 3 (RS92S3) 1 64893U 25155T 26237.48519024 .00018254 00000+0 49611-3 0 9994 2 64893 97.4594 208.3088 0003434 311.7709 48.3242 15.37609460 91498 INNOSAT 3 (RS92S0) 1 64894U 25155U 26237.48959465 .00043866 00000+0 81310-3 0 9991 2 64894 97.4529 210.9253 0001008 344.1468 15.9751 15.48857755 91676 KNACKSAT-2 1 67683U 98067XZ 26237.20551406 .00060193 00000+0 56710-3 0 9993 2 67683 51.6275 305.6765 0007297 82.1790 278.0034 15.66459981 31071 MARINA 1 69920U 26156BD 26237.23233065 .00001825 00000+0 18503-3 0 9995 2 69920 97.7470 136.8876 0007593 5.1776 354.9520 14.92093576 7293